Location: Dumpton Point
(51.3500°N, 1.4433°E)
Time: 13:15:49
(UTC+00:00)

Envisat - Pass Details

Date: 12 December 2021
Orbit: 764 x 766 km, 98.2° (Epoch: 23 January)

Event Time Altitude Azimuth Distance (km) Brightness Sun altitude
Rises 05:31:45 0° 12° (NNE) 3,247 6.3 -20.3°
Reaches altitude 10° 05:34:05 10° 9° (N) 2,316 5.4 -19.9°
Maximum altitude 05:39:06 60° 290° (WNW) 875 2.9 -19.2°
Drops below altitude 10° 05:44:05 10° 211° (SSW) 2,298 5.3 -18.4°
Sets 05:46:24 0° 208° (SSW) 3,220 6.1 -18.1°
